Content
SEND FEEDBACK

Daily
Averages
Monthly
Summary
Switzerland

VERSOIX, SWITZERLAND


Home > Europe > Switzerland
Elevation: 1365 feet     Latitude: 46 12N     Longitude: 006 12E

WEATHER
 
SELECT A DAY
Number of Records: 311,735;   Date Range: 7/1/96 - 9/30/14
 
SHARE

PRINT THIS DATA

[ ← Previous Day ]
WEATHER ALMANAC - JULY 23, 2013
[ Next Day → ]
[ °C ]   °F
Weather ElementAverageHighLow
Temperature75.9 °F87.8 °F (4:50 pm)64 °F (6:00 am)
Dewpoint60.4 °F64.4 °F (3:50 pm)55.4 °F (6:50 pm)
Humidity58.3 %83 % (4:50 am)26 % (7:00 pm)
Barometer29.98 in30.04 in (12:50 am)29.85 in (7:00 pm)
Wind Speed3.8 mph10.4 mph (7:50 pm)
Weather ElementAverage
Visibility8.4 mi
Wind DirectionSSE (142.3 °)

Weather ElementTotal
Precipitation---
Cooling Degree Days10.9 (Base 65)
Growing Degree Days25.9 (Base 50)
Averaged from 65 records on July 23, 2013
WEATHER CONDITIONS BREAKOUT
WIND DIRECTION BREAKOUT
WEATHER BY HOUR - JULY 23, 2013
[ °C ]   °F
Local TimeTemperatureDewpointHumidityBarometerVisibilityWind DirectionWind SpeedGust SpeedPrecipitationEventsConditions
12:50 AM71.6 °F60.8 °F69 %30.04 inWNW (290°)3.5 mphClear
1:00 AM71.0 °F59.0 °F58 %30.01 inWNW (290°)5.8 mph
1:20 AM71.6 °F60.8 °F69 %30.04 inVariable3.5 mphClear
1:50 AM69.8 °F60.8 °F73 %30.04 inWest (270°)4.6 mphClear
2:00 AM69.0 °F59.0 °F63 %30.00 in22.0 miWSW (240°)4.6 mphClear
2:20 AM69.8 °F59.0 °F68 %30.04 inWSW (250°)4.6 mphClear
2:50 AM68.0 °F59.0 °F73 %30.04 inWSW (240°)5.8 mphClear
3:00 AM68.0 °F59.0 °F64 %29.99 inWSW (240°)2.3 mph
3:20 AM68.0 °F59.0 °F73 %30.04 inVariable2.3 mphClear
3:50 AM66.2 °F59.0 °F78 %30.01 inWest (280°)3.5 mphClear
4:00 AM65.0 °F59.0 °F74 %29.99 inWNW (290°)3.5 mph
4:20 AM66.2 °F59.0 °F78 %30.01 inCalmClear
4:50 AM64.4 °F59.0 °F83 %30.01 inCalmClear
5:20 AM64.4 °F59.0 °F83 %30.01 inCalmClear
5:50 AM64.4 °F59.0 °F83 %30.01 inCalmClear
6:00 AM64.0 °F58.0 °F76 %29.99 inWest (280°)3.5 mph
6:20 AM64.4 °F59.0 °F83 %30.01 inWest (270°)4.6 mphClear
6:50 AM66.2 °F59.0 °F78 %30.01 inSW (230°)3.5 mphClear
7:00 AM64.0 °F59.0 °F80 %29.99 inWSW (240°)2.3 mph
7:20 AM68.0 °F60.8 °F78 %30.01 inVariable2.3 mphClear
7:50 AM69.8 °F60.8 °F73 %30.04 inVariable2.3 mphClear
8:00 AM68.0 °F59.0 °F65 %29.99 in25.0 miWNW (300°)2.3 mphClear
8:20 AM69.8 °F60.8 °F73 %30.04 inVariable2.3 mphClear
8:50 AM71.6 °F59.0 °F64 %30.04 inVariable3.5 mphClear
9:00 AM71.0 °F58.0 °F56 %29.99 inWSW (240°)2.3 mph
9:20 AM73.4 °F59.0 °F61 %30.04 in6.2 miVariable3.5 mphPartly Cloudy
9:50 AM77.0 °F60.8 °F57 %30.04 in6.2 miVariable2.3 mphPartly Cloudy
10:00 AM74.0 °F57.0 °F46 %29.97 inSouth (190°)2.3 mph
10:20 AM77.0 °F59.0 °F54 %30.01 in6.2 miSouth (190°)4.6 mphPartly Cloudy
10:50 AM77.0 °F59.0 °F54 %30.01 in6.2 miVariable3.5 mphPartly Cloudy
11:20 AM78.8 °F60.8 °F54 %30.01 in6.2 miVariable4.6 mphPartly Cloudy
11:50 AM82.4 °F60.8 °F48 %30.01 in6.2 miWSW (250°)3.5 mphPartly Cloudy
12:00 PM81.0 °F59.0 °F36 %29.94 inWest (260°)5.8 mph
12:20 PM82.4 °F59.0 °F45 %30.01 in6.2 miVariable3.5 mphPartly Cloudy
12:50 PM84.2 °F59.0 °F42 %30.01 in6.2 miVariable3.5 mphPartly Cloudy
1:00 PM82.0 °F59.0 °F35 %29.92 inWSW (240°)4.6 mph
1:20 PM84.2 °F60.8 °F45 %29.98 in6.2 miVariable2.3 mphThunderstormThunderstorm
1:50 PM82.4 °F60.8 °F48 %29.98 in6.2 miWest (280°)4.6 mphPartly Cloudy
2:00 PM81.0 °F60.0 °F38 %29.91 in25.0 miWest (270°)4.6 mphThunderstormThunderstorm
2:20 PM82.4 °F60.8 °F48 %29.98 in6.2 miWNW (290°)3.5 mphPartly Cloudy
2:50 PM82.4 °F60.8 °F48 %29.98 in6.2 miWest (280°)3.5 mphScattered Clouds
3:00 PM83.0 °F60.0 °F36 %29.90 inWest (280°)2.3 mph
3:20 PM82.4 °F62.6 °F51 %29.98 in6.2 miWNW (290°)4.6 mphScattered Clouds
3:50 PM84.2 °F64.4 °F51 %29.98 in6.2 miVariable3.5 mphMostly Cloudy
4:00 PM83.0 °F63.0 °F42 %29.89 inWest (280°)3.5 mph
4:20 PM84.2 °F62.6 °F48 %29.98 in6.2 miWest (260°)3.5 mphScattered Clouds
4:50 PM87.8 °F60.8 °F40 %29.95 in6.2 miVariable3.5 mphScattered Clouds
5:20 PM87.8 °F60.8 °F40 %29.95 in6.2 miSW (220°)6.9 mphScattered Clouds
5:50 PM86.0 °F60.8 °F43 %29.95 in6.2 miSouth (190°)8.1 mphScattered Clouds
6:00 PM86.0 °F58.0 °F28 %29.86 inSouth (190°)5.8 mph
6:20 PM87.8 °F57.2 °F35 %29.95 in6.2 miSouth (190°)5.8 mphScattered Clouds
6:50 PM87.8 °F55.4 °F33 %29.95 in6.2 miSouth (180°)5.8 mphScattered Clouds
7:00 PM87.0 °F57.0 °F26 %29.85 inWest (260°)3.5 mph
7:20 PM86.0 °F57.2 °F37 %29.95 in6.2 miVariable1.2 mphScattered Clouds
7:50 PM82.4 °F64.4 °F54 %29.95 in6.2 miNE (40°)10.4 mphMostly Cloudy
8:00 PM80.0 °F63.0 °F47 %29.87 in25.0 miNNE (30°)9.2 mphPartly Cloudy
8:20 PM80.6 °F64.4 °F58 %29.95 inNNE (20°)6.9 mphClear
8:50 PM78.8 °F64.4 °F61 %29.95 in6.2 miNNE (20°)4.6 mphMostly Cloudy
9:20 PM77.0 °F64.4 °F65 %29.95 in6.2 miVariable1.2 mphMostly Cloudy
9:50 PM75.2 °F64.4 °F69 %29.98 in6.2 miVariable3.5 mphThunderstormMostly Cloudy
10:00 PM74.0 °F63.0 °F61 %29.93 inNNW (330°)2.3 mph
10:20 PM73.4 °F64.4 °F73 %29.98 in6.2 miCalmThunderstormThunderstorm
10:50 PM73.4 °F64.4 °F73 %29.98 in6.2 miVariable1.2 mphThunderstormThunderstorm
11:20 PM73.4 °F64.4 °F73 %29.98 in6.2 miVariable3.5 mphThunderstormThunderstorm
11:50 PM75.2 °F64.4 °F69 %30.01 in6.2 miWest (270°)10.4 mphThunderstormThunderstorm
Hourly data recorded from LSGG, located miles away from Versoix, Switzerland







STORIES FROM OUR PARTNERS